Theta_e
333 335 337 338 338 339 340 340 340 341 342 342 340 341 339 337 339 338 339 339 339 341 340 340 337 337 338 340 337 339 338 341 342 343 342 344 344 343 342 342 341 340 341 340 339 338 337 337 338 336 338 338 337 336 337 335 336 334 332 332 335 334 334 335 336 335 333 332 334 334 334 336 337 338 336 337 337 337 337 333 334 335 334 334 335
333 334 336 337 337 338 338 338 339 337 338 340 340 340 339 339 338 340 340 340 342 344 343 342 341 340 337 337 339 338 338 339 339 341 343 344 344 343 342 341 341 340 339 338 338 339 337 337 337 337 336 335 336 338 339 338 336 335 335 332 332 332 333 334 337 333 326 327 327 326 329 332 334 334 334 335 335 336 336 336 335 334 334 335 335
331 332 335 335 335 336 336 336 336 337 337 337 339 340 340 340 341 339 338 339 339 339 338 339 343 344 342 343 341 340 342 343 342 343 344 343 343 343 342 342 341 341 339 337 338 338 338 337 335 338 335 334 334 335 337 336 337 336 334 331 329 331 333 338 335 334 327 331 330 326 322 321 326 329 332 334 334 335 334 334 335 335 335 336 335
328 329 330 331 332 333 334 334 335 336 335 336 337 337 338 338 340 341 341 342 342 342 341 344 343 344 345 344 344 341 339 343 344 344 343 342 340 341 340 342 340 339 337 337 338 338 338 339 337 336 337 336 335 336 336 336 336 334 333 333 331 327 328 329 334 333 331 329 321 322 322 322 318 322 326 330 333 333 334 332 334 334 334 335 334
327 327 328 329 329 330 331 333 334 334 334 334 335 336 337 337 339 340 340 340 342 341 344 344 343 341 342 343 342 342 341 340 339 339 340 341 340 340 340 340 339 339 340 340 339 337 339 337 338 337 337 337 336 335 335 336 336 336 334 333 333 330 327 331 331 332 333 334 329 323 320 317 318 323 325 325 331 331 332 334 333 333 333 333 332
326 326 326 327 328 330 330 331 332 332 332 334 336 336 337 337 338 339 341 341 340 341 343 342 343 342 341 338 337 337 336 337 336 336 339 339 338 341 342 340 340 340 340 339 339 338 337 338 338 337 337 338 338 337 337 337 335 335 333 334 332 332 329 330 328 332 335 335 336 337 331 321 320 325 323 317 328 331 331 332 331 332 334 330 334
325 326 326 326 327 327 328 328 330 331 332 335 336 336 337 337 338 339 340 341 342 341 343 344 342 342 340 339 338 337 335 337 343 345 344 345 345 343 341 342 340 339 339 339 340 338 338 339 338 338 337 337 337 336 335 335 335 336 336 335 333 332 332 328 327 328 335 336 335 336 335 333 330 325 320 323 318 326 329 329 330 330 331 332 334
322 322 323 323 324 324 324 326 327 329 332 334 335 336 336 336 338 338 340 340 342 342 343 343 341 341 340 339 338 337 337 338 340 342 345 346 342 342 342 343 341 339 339 338 339 338 337 336 337 336 337 337 337 336 336 336 335 337 335 335 336 333 331 329 328 332 329 330 334 333 333 334 332 330 329 324 322 319 321 328 331 329 332 332 333
321 320 320 321 322 323 324 325 326 327 329 329 331 333 335 335 336 337 338 338 338 341 340 341 341 340 339 338 337 338 338 339 339 340 341 344 341 342 341 341 342 340 338 338 338 338 338 338 336 337 336 337 337 337 337 336 335 334 334 333 331 332 332 331 330 332 331 330 331 331 332 331 331 332 329 327 322 320 320 322 322 329 329 331 331
320 320 320 320 321 322 324 325 325 326 328 328 329 331 331 331 332 333 332 333 335 336 337 337 338 339 338 337 336 336 338 339 339 338 339 343 339 340 340 340 340 340 338 337 337 337 337 337 337 337 337 337 337 336 336 336 335 334 334 333 333 333 335 335 333 333 334 334 333 331 328 328 329 329 330 327 325 325 321 321 322 322 322 326 331
317 318 319 320 321 322 323 322 323 325 326 326 327 328 329 328 328 329 330 330 332 332 333 333 334 335 335 336 336 334 335 336 336 336 337 337 336 338 339 338 340 338 338 337 336 337 338 338 338 338 338 337 337 336 335 336 336 334 333 334 333 333 334 335 334 334 334 334 334 331 329 329 327 324 323 325 324 322 321 322 324 325 324 323 328
317 317 317 318 319 320 321 320 321 322 324 324 325 326 327 327 327 326 328 328 329 329 330 330 331 332 333 333 334 335 335 335 334 334 336 335 335 334 339 338 338 338 338 337 336 337 337 337 338 337 337 335 335 336 336 337 336 336 334 333 332 333 335 334 334 332 333 332 332 332 332 331 330 330 330 328 325 323 323 322 322 325 324 326 328
316 316 316 317 317 318 318 319 320 321 321 322 322 324 325 325 325 325 325 327 327 328 328 329 329 329 330 331 332 333 335 335 334 334 335 335 336 335 334 332 332 334 336 335 336 336 335 336 336 336 336 336 336 336 337 337 337 336 335 334 333 333 333 332 333 333 333 331 330 331 332 331 330 333 327 326 327 326 325 321 323 326 320 322 326
314 315 316 316 317 317 318 318 319 320 320 322 322 323 323 323 324 324 324 326 326 327 327 327 328 328 329 330 331 331 332 333 334 334 335 335 335 335 334 333 331 331 333 335 337 336 336 336 337 337 337 336 336 336 336 336 336 336 334 332 332 333 333 332 332 333 334 334 333 330 330 331 331 331 330 328 325 325 324 322 322 323 325 321 324
314 314 314 315 316 317 317 318 319 319 320 321 322 322 322 322 322 323 323 324 325 325 325 324 325 325 326 328 329 329 329 329 331 334 334 335 335 334 333 333 332 333 333 334 336 337 337 337 337 336 337 337 337 335 336 337 337 335 334 334 334 335 332 331 330 332 332 333 334 332 331 331 331 332 331 328 327 327 329 328 323 319 319 321 321
313 313 314 315 316 317 317 318 318 318 319 321 320 322 322 322 323 323 322 323 322 323 323 324 324 325 326 326 326 327 328 329 330 333 333 334 334 333 332 332 332 333 333 333 333 334 335 336 336 336 336 337 335 336 335 334 334 334 333 333 333 335 333 333 331 332 332 334 334 334 332 330 332 333 330 329 329 332 331 330 329 322 319 316 319
312 313 313 314 315 316 316 316 317 318 319 320 320 321 322 323 322 320 320 321 321 322 322 323 324 324 325 325 325 326 326 327 329 332 333 333 333 334 332 331 332 334 334 334 333 333 333 334 334 336 336 335 333 334 335 334 333 332 332 332 332 333 333 333 334 334 333 334 332 333 332 332 332 331 330 330 333 334 332 331 330 326 323 319 315
312 313 313 314 314 314 315 316 316 317 318 319 320 323 323 323 321 320 319 319 319 319 320 322 322 323 323 324 325 325 326 326 328 330 333 333 332 332 333 332 332 333 333 335 334 332 333 334 334 334 334 331 333 335 334 332 332 331 332 333 333 333 332 332 333 334 332 332 331 331 331 331 331 331 331 333 333 334 331 331 329 327 327 320 319
311 312 312 312 312 313 314 315 315 316 318 319 320 320 321 322 325 321 319 319 320 320 321 322 322 322 322 323 324 324 325 325 327 328 330 331 331 331 331 332 333 333 333 333 334 334 332 332 332 333 332 331 332 332 332 332 332 332 332 332 334 333 332 331 332 331 331 330 329 329 330 330 329 330 329 333 334 334 333 331 329 330 328 327 323
310 311 311 311 312 312 313 314 314 316 317 319 320 320 319 320 320 320 319 319 320 321 322 322 322 322 322 323 324 323 323 323 324 325 326 329 329 330 330 331 331 332 333 332 331 332 332 331 334 332 332 332 331 331 331 331 332 331 332 332 334 333 331 330 331 331 332 330 329 328 329 329 329 329 328 331 333 334 334 330 329 329 330 328 328
310 310 310 311 311 313 313 315 316 316 318 319 320 318 319 320 321 319 318 318 319 321 322 322 323 322 322 322 322 323 323 323 323 323 324 324 325 327 329 330 332 330 332 333 331 330 330 331 330 330 331 331 330 328 328 330 331 331 333 332 333 333 332 331 331 330 332 331 328 328 328 330 331 328 328 330 332 332 332 333 332 330 328 329 326
309 309 310 310 311 312 314 315 315 315 315 317 318 318 318 317 317 317 318 317 318 319 321 322 321 322 322 322 322 322 322 322 322 322 322 321 322 324 326 328 330 331 331 330 331 331 332 332 329 332 332 331 331 330 330 331 330 330 331 331 331 330 328 329 330 328 328 329 328 327 328 329 330 329 330 330 332 331 331 331 330 329 327 327 329
308 309 309 310 311 312 313 313 313 314 315 316 316 316 316 317 317 317 317 318 319 319 320 321 320 320 320 320 321 321 321 321 320 320 320 320 320 321 323 324 325 328 330 332 331 330 330 331 329 329 328 328 330 331 332 331 330 329 330 331 329 328 329 329 329 328 328 328 327 327 327 328 329 327 327 329 330 330 330 329 328 328 326 326 328
308 309 310 311 311 312 312 312 312 313 314 314 315 314 316 316 316 316 317 317 318 318 319 320 320 320 320 320 319 320 320 321 318 318 319 319 319 320 321 322 323 325 326 329 331 330 330 329 328 329 330 329 329 330 332 332 332 331 330 328 328 328 329 330 330 330 330 330 328 328 328 328 328 326 327 331 331 330 329 327 328 328 327 327 328
307 308 308 309 310 310 310 311 311 311 312 314 313 313 314 315 315 315 315 317 317 318 318 318 319 319 318 318 318 318 318 318 317 318 317 318 318 318 319 320 321 320 322 324 328 331 331 330 326 327 329 328 329 331 331 330 331 332 330 328 328 328 330 330 331 331 331 329 328 327 328 328 328 328 326 330 331 330 330 329 328 328 327 328 326
307 308 308 308 309 310 310 311 311 311 311 312 313 313 314 314 315 317 315 316 316 317 317 317 317 317 316 317 317 316 316 316 316 316 316 316 317 317 317 317 318 318 319 320 322 324 328 329 330 328 327 328 330 328 328 328 329 329 330 331 330 329 330 329 330 331 329 330 329 328 329 329 328 326 326 328 330 329 330 327 328 326 325 325 324
306 307 307 308 308 309 309 310 310 311 312 312 312 312 312 313 314 315 315 316 316 316 316 316 316 316 315 315 315 315 316 315 315 315 315 314 314 315 315 314 315 315 315 316 318 320 322 324 327 330 328 328 329 330 329 329 329 329 329 329 329 329 329 331 330 331 330 330 329 329 329 330 328 327 327 327 326 324 323 325 325 326 326 326 324
307 307 307 307 307 308 308 309 310 310 310 310 311 311 311 311 311 312 314 315 316 315 314 314 315 314 314 314 315 315 315 314 314 314 313 313 313 313 313 313 313 313 313 313 313 314 317 320 320 324 328 328 328 328 327 328 328 329 329 329 329 328 330 331 331 331 330 330 329 328 328 329 329 329 327 327 326 324 325 324 326 325 324 324 324
305 306 306 306 306 306 307 308 308 308 308 309 309 309 310 311 311 311 312 313 314 314 313 313 313 313 313 314 314 314 314 313 313 312 312 311 311 311 311 311 311 311 311 311 311 310 312 313 316 319 322 326 327 321 311 311 320 328 330 328 328 330 331 330 329 330 330 330 329 329 329 329 328 329 322 322 323 324 326 325 325 326 324 323 324
304 304 305 305 305 306 306 306 307 306 306 307 307 307 308 309 310 311 311 313 313 313 312 312 312 312 312 313 313 313 312 312 312 311 311 311 310 310 310 310 309 310 309 309 308 308 308 308 310 312 316 320 314 304 303 299 298 305 321 327 328 329 329 329 329 329 330 330 328 326 328 328 323 321 318 315 314 316 320 326 326 326 325 323 324
303 303 303 304 305 305 305 305 305 306 306 306 307 307 308 309 309 310 310 311 312 311 311 311 310 311 312 312 312 311 311 311 311 311 311 310 309 310 309 308 308 308 307 307 306 305 305 305 306 307 309 314 309 301 296 294 294 296 306 321 325 326 328 328 329 329 329 329 329 328 329 327 320 320 318 307 309 308 310 313 315 318 323 326 324
301 302 302 303 303 303 304 304 305 305 306 306 306 306 307 307 308 308 310 311 311 310 310 309 309 310 310 310 310 310 310 310 310 309 309 309 309 308 308 307 307 306 306 306 305 304 304 303 304 304 305 308 308 299 293 293 293 293 296 306 320 325 324 327 328 329 329 328 325 326 328 326 325 325 324 316 310 305 305 306 307 308 306 306 311
301 301 302 302 302 303 304 305 305 305 305 306 306 306 305 306 307 308 309 310 310 309 308 308 308 308 309 310 309 309 309 309 309 309 309 309 308 307 306 306 305 306 305 304 304 303 303 303 302 301 302 303 306 297 293 293 292 292 293 297 312 322 327 327 328 329 329 328 325 323 324 327 327 324 325 326 321 315 306 302 301 300 302 303 300
301 302 302 303 303 304 304 306 308 307 306 307 306 305 307 308 307 307 308 309 308 308 307 307 307 307 308 308 308 308 308 308 308 308 308 307 306 306 306 306 306 305 304 303 303 302 302 302 301 301 300 301 303 297 293 292 292 291 292 293 308 316 323 326 327 328 329 329 327 325 323 324 326 327 325 324 325 320 317 314 318 321 318 309 303
301 301 302 303 303 305 306 305 305 306 307 307 306 307 311 308 311 306 307 307 307 307 306 306 306 306 307 307 307 307 307 307 307 307 307 306 306 306 305 305 305 304 303 302 302 301 301 301 301 300 300 299 300 295 293 292 291 291 291 294 309 317 321 324 326 327 328 328 327 327 326 324 324 325 326 324 325 323 321 321 322 324 319 310 307
301 301 302 303 304 304 304 305 306 305 305 305 306 307 306 305 306 307 306 306 306 305 305 305 305 305 305 306 306 306 306 306 306 306 306 305 306 305 305 305 304 304 303 303 302 302 300 300 300 300 299 298 298 294 293 292 292 291 292 303 313 317 321 325 326 324 322 321 322 326 325 323 323 324 318 306 311 323 324 321 316 313 308 305 301
303 304 304 304 304 304 305 305 305 305 305 305 305 306 305 304 304 304 304 305 305 304 304 305 304 305 305 305 305 304 305 305 305 305 304 305 305 305 305 305 304 303 302 302 302 301 301 300 299 299 299 298 298 296 293 292 292 291 294 303 312 317 321 323 322 319 314 310 308 311 322 324 323 323 312 302 306 312 321 318 314 311 308 306 303
303 304 304 304 304 304 305 305 304 304 305 305 305 305 305 304 304 304 303 303 304 303 304 304 304 304 304 304 304 304 303 303 304 304 304 304 304 305 304 306 304 302 302 302 302 301 301 300 299 299 299 298 298 297 294 293 292 292 294 301 309 317 321 321 320 316 313 309 305 302 315 324 323 316 298 300 303 314 322 317 312 310 308 306 305
303 302 302 303 304 304 304 304 304 303 304 305 305 304 304 303 303 303 303 302 302 303 304 304 304 304 304 304 304 303 303 302 301 301 302 302 303 303 304 305 304 303 302 302 302 301 301 301 300 299 300 298 298 297 295 293 293 292 294 300 311 316 314 312 310 308 307 306 306 302 299 299 306 300 294 299 306 316 321 317 313 310 308 306 307
302 303 303 303 304 303 303 302 302 303 304 304 304 303 303 302 302 303 302 302 302 303 303 304 304 304 304 303 303 303 303 302 301 301 301 302 302 303 303 303 303 302 302 302 301 301 300 300 300 299 299 299 297 297 296 293 293 293 293 297 305 307 308 306 305 305 304 303 302 301 299 292 292 293 293 294 299 307 318 318 315 312 309 307 310
301 301 302 302 302 302 301 301 302 302 303 303 303 303 302 302 302 301 301 302 303 304 304 303 303 303 303 302 302 303 303 303 303 302 301 301 302 302 302 302 301 302 302 301 301 300 300 299 299 299 298 298 298 296 295 293 293 293 293 293 298 298 303 305 302 300 300 299 299 298 298 294 292 293 294 296 298 300 305 318 316 312 311 310 309
302 302 302 302 302 302 302 302 302 302 302 302 302 302 301 301 301 301 302 303 303 303 303 303 302 302 302 302 302 302 303 303 303 302 300 299 300 301 301 301 300 300 300 299 299 299 299 298 298 298 298 298 298 297 294 293 292 293 293 293 294 295 296 303 300 299 298 296 296 295 295 293 292 293 294 295 297 299 301 309 308 299 298 300 310
300 301 301 301 301 301 301 301 302 302 302 302 302 301 301 301 300 302 303 303 303 303 303 303 303 302 302 302 302 301 302 302 302 302 299 298 298 298 299 299 299 299 298 298 298 298 298 297 297 298 298 297 297 297 294 293 293 292 293 293 292 293 293 299 297 296 296 296 296 296 296 294 292 293 293 294 295 296 299 299 295 297 298 300 304
301 301 301 301 300 300 301 301 301 302 302 302 302 300 301 300 300 303 303 303 303 303 303 303 302 302 302 302 302 302 302 301 301 301 300 298 297 298 297 297 297 297 296 296 296 297 297 296 296 296 297 297 296 296 295 292 292 292 292 292 292 292 292 295 296 295 295 295 295 295 294 292 293 293 293 293 293 295 296 294 295 296 298 299 305
299 300 301 301 300 300 300 300 301 301 302 301 301 301 300 300 302 303 302 302 302 302 302 302 301 302 302 301 302 302 302 301 301 301 299 298 297 297 296 296 296 295 295 294 294 295 295 295 295 295 295 296 296 295 294 293 292 292 292 292 292 292 292 293 297 297 296 295 292 292 292 293 293 294 294 295 295 294 294 295 296 297 302 304 303
299 300 300 300 300 300 300 299 300 301 301 302 301 301 300 301 302 302 302 302 302 302 302 301 301 301 301 301 301 301 301 301 301 300 300 299 297 296 295 295 295 295 294 294 293 293 294 295 294 294 295 295 295 294 293 293 293 293 294 293 292 293 293 294 295 296 294 294 293 293 293 293 294 295 298 298 297 297 294 295 296 299 304 303 302
299 300 300 300 299 299 298 299 299 300 300 300 300 301 302 302 302 302 302 302 301 302 301 301 301 301 302 301 301 301 300 300 300 299 299 299 298 296 295 294 294 294 294 293 293 292 293 294 293 293 293 293 293 293 292 291 292 292 293 295 295 295 294 294 295 297 296 297 295 295 294 293 294 293 294 294 295 296 298 300 300 300 300 300 301
300 300 300 299 299 298 298 298 298 300 300 300 300 299 300 301 301 302 301 302 301 300 300 300 300 301 300 300 301 295 298 300 299 298 297 298 298 297 294 293 293 293 292 292 292 292 292 293 293 292 292 292 291 291 291 289 289 290 291 293 294 294 294 294 293 294 296 296 296 294 294 295 295 295 296 296 296 296 296 296 299 300 300 299 298
299 300 300 299 299 298 298 298 299 300 300 300 300 301 300 301 301 301 302 301 301 300 301 299 299 300 301 301 300 300 300 300 298 297 296 295 295 297 296 294 293 292 291 292 293 293 293 294 294 292 291 290 290 290 290 288 288 288 289 291 292 292 293 293 292 291 295 294 294 294 292 293 293 291 291 292 293 293 293 294 295 297 298 298 298
299 299 299 299 300 299 299 298 299 300 300 300 300 300 301 300 300 300 300 300 300 300 300 299 299 298 299 300 300 299 300 299 300 298 296 295 289 289 292 295 293 291 289 288 288 291 293 295 294 294 293 290 289 289 288 288 288 289 289 290 290 291 290 292 291 291 293 292 291 290 291 290 290 291 290 290 290 291 291 291 292 291 293 295 295
299 299 299 299 299 300 299 298 299 300 299 300 300 300 301 301 301 301 300 299 299 298 298 298 298 298 297 300 299 298 299 299 299 299 299 296 296 294 289 288 289 290 289 288 288 288 289 289 293 294 293 289 289 288 288 289 288 289 289 290 290 291 291 290 291 291 291 290 290 289 290 290 290 291 290 290 290 290 290 290 290 291 292 291 291
Wind_Speed
7 9 9 10 10 10 10 10 10 10 9 10 9 7 6 4 3 5 4 4 4 3 3 2 1 2 1 2 4 5 6 5 4 5 5 5 5 6 6 5 5 5 4 4 4 5 6 5 4 4 4 5 4 4 3 4 4 3 5 9 7 6 4 3 4 3 4 3 4 3 3 1 2 1 0 1 2 2 2 4 6 6 5 6 5
9 9 9 11 9 11 10 9 9 10 9 9 8 7 7 5 4 4 4 4 4 4 4 1 2 2 4 5 4 4 5 4 5 5 6 5 6 6 5 5 5 5 5 4 4 4 4 5 6 5 5 5 3 3 2 2 3 1 2 3 7 10 4 4 3 5 1 4 4 1 1 0 1 0 0 1 1 1 2 1 6 5 5 5 5
10 10 9 10 11 11 9 7 8 8 9 8 7 7 7 6 6 6 5 4 2 2 3 3 3 2 2 2 3 3 3 3 4 3 4 4 4 5 6 5 5 4 4 3 5 6 5 4 4 4 5 5 5 5 4 4 3 3 4 5 3 10 6 1 5 3 5 4 3 4 2 2 0 1 2 1 2 1 2 2 6 5 6 5 5
6 10 10 10 11 9 9 8 8 7 7 7 7 7 5 5 5 4 3 3 3 3 3 3 1 1 2 3 3 4 4 3 3 3 4 4 5 5 5 3 4 4 4 5 5 4 6 5 4 4 4 6 6 5 5 4 5 5 4 5 6 5 8 2 3 10 4 5 6 3 3 3 2 5 4 3 3 3 2 6 6 5 5 5 5
8 10 10 10 11 10 9 8 7 8 7 8 7 6 4 5 5 4 3 2 1 1 2 3 3 4 4 4 4 3 4 5 5 5 6 6 6 5 5 6 7 6 5 6 5 5 5 5 6 5 5 4 5 4 5 5 5 5 4 3 5 4 5 4 4 7 8 6 3 4 2 0 2 2 5 2 4 3 4 4 4 7 5 5 5
10 10 10 10 11 10 9 8 8 8 8 7 6 5 4 3 3 3 2 1 1 1 1 0 3 3 3 4 4 5 5 5 6 5 4 5 6 4 4 6 7 6 6 7 8 6 5 6 5 5 6 4 4 5 5 4 5 5 5 4 2 3 4 4 6 7 8 7 3 1 1 2 4 2 6 3 2 3 3 2 0 4 5 3 4
10 11 11 11 11 11 11 11 11 10 8 7 6 5 5 4 3 2 2 1 1 1 2 0 2 3 3 3 3 3 4 4 2 2 1 2 1 2 4 5 7 6 5 5 5 4 6 5 5 6 5 5 5 5 5 6 5 5 5 5 5 5 4 6 8 8 4 3 4 1 0 1 5 4 4 4 3 3 1 2 4 3 4 5 4
10 11 11 11 11 11 10 9 10 9 7 7 5 5 6 5 4 4 3 3 2 3 2 3 3 3 3 3 3 4 3 3 3 2 1 1 2 2 2 3 5 5 5 6 6 6 4 4 7 6 6 7 6 7 7 6 5 4 4 5 4 5 5 6 8 6 7 5 4 4 2 1 3 4 3 1 2 5 4 3 2 8 4 4 5
12 10 11 11 11 11 10 10 9 10 8 8 7 6 5 6 6 6 5 5 5 5 5 4 4 5 5 5 5 3 4 3 4 3 2 1 2 1 2 2 1 3 5 6 7 7 5 7 7 6 6 7 7 6 6 6 7 6 6 5 6 6 8 8 9 7 6 5 5 4 3 3 3 4 5 6 3 4 6 6 5 4 4 3 5
11 12 11 11 10 10 9 9 9 8 7 7 7 7 7 7 8 7 8 7 7 8 8 8 8 6 5 5 6 5 5 4 4 4 3 1 2 2 2 1 2 2 4 5 5 6 6 6 7 7 8 7 7 8 8 7 7 7 6 6 7 8 7 8 7 5 4 4 5 5 6 4 3 2 2 3 6 6 4 8 7 8 8 5 5
10 10 11 11 9 9 8 10 9 8 7 8 8 7 7 7 8 9 8 7 8 8 9 9 8 8 7 8 8 8 7 6 5 5 4 5 3 2 1 2 2 2 2 3 4 5 5 6 6 7 7 7 7 8 8 8 8 8 7 7 7 8 5 5 5 4 4 5 4 5 6 6 6 5 5 5 4 4 5 6 7 8 8 7 7
10 10 10 10 10 9 9 9 9 8 8 7 6 6 6 6 7 8 7 8 8 8 9 9 9 9 9 10 8 7 7 7 7 6 5 5 5 4 2 1 1 2 3 3 4 5 6 6 6 7 7 6 7 6 6 7 7 7 7 7 7 8 6 5 6 6 7 6 6 5 5 4 3 2 2 1 2 7 6 6 7 7 6 6 6
9 9 9 9 8 7 8 8 8 8 7 7 7 5 6 6 7 7 7 7 7 8 8 9 9 9 9 10 10 8 8 7 6 7 6 5 5 3 3 3 5 3 2 3 3 4 4 6 6 6 6 5 5 5 5 5 5 6 7 9 7 8 7 6 7 7 7 7 7 6 5 5 5 2 5 6 4 7 7 6 6 6 6 6 7
9 9 8 8 8 7 8 8 8 7 7 6 5 5 5 5 6 6 7 6 6 6 7 9 10 10 10 10 9 9 9 9 7 6 6 5 5 5 3 2 4 5 5 4 3 5 5 5 5 5 6 5 4 6 6 7 7 7 7 7 8 8 7 9 9 7 6 7 6 6 6 6 4 3 3 1 8 12 5 5 6 6 1 4 6
8 8 8 8 8 9 7 7 6 6 7 6 5 6 6 6 6 6 6 7 7 7 7 8 8 9 10 9 9 9 9 9 8 6 7 7 6 6 5 5 4 5 5 5 5 4 5 4 5 6 6 6 6 6 5 6 4 5 6 8 8 7 8 9 8 7 7 8 8 6 5 4 5 4 4 7 12 9 3 3 5 8 7 6 6
8 9 9 9 8 8 7 6 6 6 7 5 5 4 4 3 3 6 9 9 10 9 8 6 5 4 6 8 9 9 9 9 8 7 6 6 5 5 6 5 4 3 4 5 5 6 6 5 6 6 6 5 7 6 6 5 5 5 4 6 8 7 8 9 8 9 9 8 8 5 5 6 4 5 6 10 11 2 3 4 3 5 8 6 4
8 8 8 9 8 8 7 7 6 5 4 4 5 5 4 4 7 10 10 10 9 10 9 8 7 6 6 7 8 8 9 10 9 9 8 6 5 4 4 5 5 4 4 3 4 4 6 6 6 6 4 4 7 9 7 5 5 6 5 6 7 8 8 8 7 7 8 7 5 4 5 4 4 3 6 10 5 4 4 3 4 4 7 7 7
8 8 9 8 8 8 7 6 7 6 6 5 5 4 4 6 6 7 9 9 9 9 8 7 9 8 7 8 7 7 8 9 10 9 8 7 7 6 5 5 6 6 5 3 3 5 4 6 5 5 2 4 8 5 6 7 8 8 7 6 6 6 7 6 7 8 7 5 6 4 3 3 2 4 5 9 4 3 4 3 4 4 5 6 6
7 7 7 7 7 6 6 6 6 6 6 5 5 6 6 5 1 7 8 8 7 5 5 5 6 6 6 8 8 7 7 9 9 10 9 9 9 8 7 6 5 5 5 5 4 3 3 3 4 4 3 6 7 7 8 7 8 6 6 5 5 7 7 8 7 6 6 6 5 5 3 1 4 3 6 8 4 3 4 3 4 3 3 3 7
8 7 7 7 7 7 7 6 7 7 6 5 5 5 6 5 8 8 8 9 7 6 4 4 4 5 6 7 7 8 8 9 9 10 10 10 10 10 9 8 7 7 5 6 6 5 4 4 3 4 6 4 4 6 6 7 6 6 7 6 6 7 6 6 5 6 6 6 6 6 5 7 6 3 7 9 5 4 3 4 4 5 3 4 4
7 7 7 7 7 7 7 7 6 6 6 5 5 6 4 5 3 9 11 9 7 5 4 4 4 4 6 7 7 7 8 8 8 9 10 11 11 10 9 9 7 6 7 6 6 6 6 5 4 6 6 6 6 6 8 7 6 7 6 7 7 7 6 5 6 6 4 4 5 6 6 7 5 7 10 9 6 6 6 4 3 3 3 4 6
8 7 7 6 7 8 6 7 8 7 6 6 6 6 9 8 10 11 10 9 8 9 6 6 7 6 6 7 7 7 7 8 8 8 9 10 11 10 10 10 9 7 6 8 7 7 6 6 5 3 5 7 6 6 6 5 6 7 7 7 7 5 8 8 5 6 5 5 4 6 7 6 5 7 10 10 8 7 7 7 5 5 4 5 6
7 7 7 6 5 6 8 8 8 7 7 7 7 7 7 9 9 8 9 9 9 8 9 6 6 7 9 8 7 5 6 7 9 8 8 9 10 11 11 11 10 10 9 5 5 6 7 6 6 3 7 6 5 7 7 6 7 8 9 6 4 8 8 8 8 9 10 9 8 9 9 7 6 8 12 11 6 8 8 8 8 6 6 5 5
7 6 5 6 6 6 7 7 8 7 7 7 7 8 7 7 7 6 9 10 10 8 7 7 7 5 7 7 8 8 8 5 9 8 11 10 10 9 10 11 11 10 11 10 7 6 6 5 6 6 4 6 7 6 6 6 7 7 7 4 7 6 7 7 7 7 7 8 9 9 10 8 8 9 11 8 6 6 7 7 7 5 5 5 8
9 9 8 8 8 7 7 8 8 8 8 6 8 8 8 7 7 10 9 7 6 6 8 9 9 8 8 7 8 8 10 11 10 9 11 10 10 10 9 11 11 12 13 14 12 7 5 1 4 7 7 6 9 7 5 6 6 6 4 7 8 7 7 6 5 4 5 7 8 9 7 8 7 4 7 9 7 7 6 6 6 2 2 6 5
9 9 9 9 8 8 8 8 8 8 7 8 8 8 8 9 9 5 7 8 10 9 8 9 10 10 10 10 9 9 10 11 11 10 11 11 11 11 11 10 11 12 12 11 12 13 12 9 3 5 6 8 6 2 5 7 7 5 6 3 3 4 5 5 5 5 6 6 7 9 8 7 7 8 10 9 7 3 3 5 3 7 5 6 6
10 9 8 9 9 10 9 8 8 8 8 9 9 9 10 9 9 8 7 7 6 7 10 9 8 10 10 10 11 11 10 10 11 11 11 12 12 12 13 13 12 12 12 12 13 13 13 14 12 5 6 6 7 3 6 8 6 7 8 7 6 6 8 7 7 7 7 7 7 7 7 7 8 7 6 7 3 6 7 8 5 5 6 5 6
9 9 10 10 10 10 9 9 9 9 9 9 9 9 9 9 9 10 11 9 8 8 8 9 9 9 10 11 10 10 11 12 11 11 11 11 12 12 12 12 12 13 12 14 13 14 12 12 12 13 10 6 8 7 7 6 7 5 6 6 7 7 7 6 7 7 7 7 8 8 8 7 6 6 6 3 6 7 5 6 6 8 7 8 8
11 10 9 9 9 9 8 9 9 9 9 8 8 9 8 9 9 9 9 9 8 9 11 10 10 11 10 10 10 10 10 11 12 12 12 13 13 12 13 13 12 13 11 13 13 13 14 14 14 13 13 12 8 12 12 12 10 7 4 5 6 6 5 5 5 6 6 7 7 7 7 8 8 9 12 11 12 9 8 7 6 7 7 8 8
11 10 9 9 9 8 8 9 9 10 11 10 9 10 10 9 9 10 9 9 6 7 10 11 12 11 11 12 11 11 11 11 12 12 13 13 13 13 13 13 14 13 13 13 14 14 13 14 14 14 13 11 12 9 17 24 17 10 9 6 6 5 4 5 6 6 6 6 6 4 6 12 11 14 17 18 15 13 11 8 9 7 8 8 8
10 9 10 9 8 8 9 10 10 10 10 10 9 10 9 9 9 10 9 7 9 13 11 12 13 12 12 12 11 12 12 13 12 12 12 13 14 12 13 14 14 14 14 14 13 15 15 14 14 14 13 11 9 14 24 20 22 20 10 7 7 6 4 6 7 7 6 7 3 3 3 6 9 11 12 15 14 13 13 11 12 12 11 11 9
10 10 9 9 9 9 10 10 11 10 10 10 9 10 9 9 10 10 8 8 11 11 11 12 12 12 13 13 12 13 13 13 13 14 14 13 13 14 14 13 13 14 13 13 15 14 13 13 12 13 12 12 7 20 22 22 20 20 15 9 8 7 6 6 5 6 5 4 5 5 4 4 5 6 5 6 8 11 12 11 11 10 7 4 4
9 10 9 9 9 9 9 9 9 9 10 10 9 9 10 10 10 9 8 8 11 11 12 13 12 13 12 11 12 13 13 13 13 14 12 13 14 14 14 13 14 13 12 13 14 14 13 13 13 14 13 13 9 18 22 23 21 19 19 13 7 10 7 5 4 5 4 4 8 9 6 6 8 12 5 4 4 5 5 7 10 8 7 7 8
9 9 9 9 8 7 6 5 6 9 9 5 5 8 8 8 7 9 9 11 12 12 13 12 12 12 12 13 13 13 13 13 13 13 13 14 14 14 12 10 10 11 12 12 13 14 13 13 13 13 12 12 10 18 22 23 21 20 19 14 6 7 7 8 6 3 4 4 7 8 7 6 5 6 7 7 6 7 7 7 6 4 4 6 8
9 10 9 7 6 5 7 11 12 11 10 10 11 9 2 6 2 9 8 11 11 13 12 11 11 13 13 13 12 13 13 12 13 12 11 12 12 11 12 11 10 12 12 12 12 13 12 13 13 13 13 12 9 21 23 23 21 20 21 14 7 6 5 6 5 5 2 3 5 6 5 7 6 4 2 4 2 5 6 7 6 4 6 6 6
8 9 5 5 7 10 10 10 10 10 10 11 13 13 15 12 11 12 13 12 12 12 12 11 11 11 12 13 13 12 11 11 12 12 12 12 11 11 10 9 9 9 9 9 9 10 12 13 14 15 15 14 12 21 25 25 24 21 21 9 6 6 5 3 2 5 5 6 4 1 6 7 5 4 6 9 10 5 3 7 8 6 7 6 5
7 7 9 11 10 10 10 9 9 9 9 9 9 9 10 11 12 10 10 11 11 10 10 10 11 11 11 12 13 13 12 11 11 11 11 10 11 11 9 8 9 10 10 11 10 10 10 12 15 15 15 12 12 19 25 25 25 25 17 8 7 6 4 0 4 6 8 8 7 7 2 4 5 3 5 15 14 5 6 8 7 7 6 7 5
7 8 8 9 10 9 9 8 8 9 8 8 9 9 9 10 10 10 10 11 11 11 11 10 10 10 11 11 12 13 12 12 12 13 12 10 9 9 9 8 9 10 11 11 10 10 10 10 12 14 15 14 13 18 24 25 26 27 20 10 9 7 4 1 7 8 7 6 9 17 7 3 5 3 1 10 11 11 6 8 9 10 8 8 6
8 8 9 8 8 9 9 8 8 9 8 8 9 9 9 9 10 10 10 10 11 10 9 9 9 9 10 10 10 11 11 12 13 13 12 13 11 9 8 8 8 8 9 9 9 10 10 10 11 12 15 15 14 16 23 24 26 27 22 12 13 9 9 7 7 8 8 7 7 9 14 11 4 4 8 12 11 6 8 8 8 8 9 9 7
9 8 8 9 8 9 9 9 9 8 8 9 9 9 9 9 10 10 11 11 10 9 9 7 7 7 7 9 9 10 9 9 9 8 10 10 9 10 10 9 8 8 8 9 9 9 10 11 11 12 14 14 15 15 19 25 24 25 27 16 12 12 10 8 7 8 8 8 7 7 10 14 8 9 10 10 12 13 9 6 7 7 9 9 7
9 8 7 8 8 8 9 9 9 9 9 9 8 8 9 9 9 10 10 10 10 9 9 8 8 9 11 13 11 10 10 11 11 12 13 12 11 10 10 10 9 9 9 9 10 9 10 10 10 12 12 14 14 15 17 24 23 24 26 22 11 13 11 7 8 9 8 8 8 8 6 11 11 12 12 12 13 14 10 7 6 7 6 8 8
9 7 8 8 8 7 8 10 10 9 9 7 7 8 10 10 9 10 10 9 10 10 9 10 10 10 10 11 11 11 9 9 10 12 13 12 12 12 12 12 10 11 12 11 10 9 8 9 9 11 12 13 14 19 16 20 24 23 23 24 14 13 15 9 9 9 9 9 8 8 7 8 12 15 15 15 16 16 16 10 11 15 16 14 9
10 10 10 8 8 8 10 9 8 9 9 7 6 9 9 8 9 8 7 8 8 8 9 9 9 9 8 9 9 11 9 9 9 11 12 12 11 11 11 11 11 11 12 12 12 11 10 10 9 10 10 12 13 12 19 17 21 22 23 21 22 17 19 12 10 11 11 8 7 8 8 10 14 16 17 17 17 17 13 10 16 15 13 13 10
10 10 9 9 10 9 8 9 9 8 7 6 8 9 8 9 10 7 6 7 8 8 7 8 7 8 8 9 9 10 10 9 9 8 9 10 11 10 10 10 10 10 10 11 10 10 10 11 11 10 10 11 11 12 14 20 19 22 21 21 20 19 18 12 12 11 10 9 9 9 8 11 15 18 20 19 18 16 12 16 16 16 15 12 9
9 9 9 9 9 10 10 10 8 6 5 8 8 9 8 8 7 8 9 8 8 7 6 6 7 8 7 9 7 8 10 10 9 9 9 9 10 10 10 10 10 10 10 10 9 9 9 9 10 10 9 10 11 11 12 17 21 20 20 21 20 20 19 17 12 9 9 10 11 14 14 14 14 16 20 18 16 18 19 17 17 15 12 8 9
9 10 10 9 9 9 10 9 6 7 10 6 7 7 7 5 7 8 8 8 7 7 7 8 8 7 8 9 9 8 9 9 9 9 8 8 8 9 8 9 9 9 9 9 9 9 8 9 9 9 10 10 10 9 10 11 13 15 15 19 19 18 18 18 15 13 17 18 16 14 16 16 15 13 14 12 11 12 17 18 17 15 9 8 7
11 11 10 9 8 9 9 7 8 8 7 8 8 6 4 7 9 8 8 7 6 5 6 5 6 6 5 6 6 5 6 6 7 7 8 7 7 7 8 8 8 9 10 9 10 9 9 8 8 9 9 9 9 9 10 9 7 9 11 12 13 13 15 15 12 10 11 11 14 13 12 13 11 16 18 18 17 14 12 11 10 9 9 8 7
10 11 10 8 8 10 8 7 8 7 7 8 9 8 8 9 8 7 6 5 5 5 6 6 6 5 5 6 5 6 6 5 6 6 6 6 6 6 7 7 7 7 7 9 9 9 9 8 8 8 8 8 8 8 9 9 10 9 10 11 11 11 10 9 10 8 7 8 9 11 14 12 12 12 12 12 12 11 10 9 9 8 8 9 10
10 9 8 8 9 9 8 9 9 8 7 8 8 7 9 9 8 8 7 5 4 4 6 7 6 4 4 4 5 6 5 5 5 6 5 4 4 4 5 5 6 4 5 5 6 7 8 7 6 7 8 7 7 7 7 9 9 11 9 8 9 10 10 9 11 13 10 11 11 12 12 12 12 11 11 11 12 12 11 10 11 10 8 8 8
9 9 9 9 8 7 7 8 7 7 8 8 7 6 7 7 7 7 8 10 9 5 6 5 5 6 5 5 5 5 6 6 4 5 4 5 6 8 6 4 3 4 7 8 7 5 6 7 6 4 4 5 5 6 10 12 12 13 14 14 13 14 14 13 15 19 13 10 10 10 11 11 11 11 11 11 10 9 8 9 9 9 9 8 8
10 10 10 11 9 9 11 9 6 6 7 8 7 6 5 6 8 8 9 8 9 7 6 6 6 6 5 3 5 5 6 5 4 4 4 5 3 4 7 7 5 3 4 4 5 7 9 9 8 6 2 2 5 7 10 11 11 11 13 13 13 13 13 14 13 10 10 9 8 9 8 8 8 8 9 9 8 8 7 7 7 7 7 8 7
Wind_Direction
104 99 95 91 86 82 77 75 75 74 75 81 82 81 85 97 122 115 131 168 166 173 166 133 143 123 9 227 208 227 230 224 201 183 210 221 209 210 211 208 206 198 197 204 199 191 193 199 208 194 184 197 196 219 190 225 263 348 345 327 280 229 226 216 178 170 146 112 72 87 83 61 41 6 127 100 124 226 164 152 138 151 157 166 160
97 82 78 85 81 76 71 72 74 76 74 71 77 100 114 114 78 62 45 14 12 355 15 87 213 198 186 202 202 219 230 217 223 215 213 217 200 211 214 207 203 202 195 177 213 228 218 208 210 215 189 202 197 210 206 213 222 218 172 261 286 271 230 210 180 144 278 185 150 149 118 143 114 280 223 209 185 248 137 133 123 152 162 157 143
70 85 82 81 82 79 77 72 68 68 67 64 61 67 70 95 116 126 145 192 120 235 221 268 255 228 217 229 231 249 243 254 256 240 205 209 220 219 214 212 215 193 190 193 216 202 204 200 204 215 190 189 194 198 201 216 207 191 176 196 264 265 249 267 36 296 190 164 159 129 179 168 260 331 284 232 198 222 158 190 137 167 178 149 157
83 75 77 80 77 78 81 78 74 71 71 72 66 62 62 61 67 74 106 133 154 143 208 185 153 319 261 249 226 218 250 248 240 256 247 227 240 234 237 228 228 212 206 213 221 226 217 185 184 208 210 189 200 196 183 197 195 213 183 198 202 295 294 312 161 247 235 177 181 205 158 173 165 221 194 213 192 218 193 203 161 165 176 154 149
94 91 82 79 79 76 77 76 75 71 67 66 60 60 59 58 56 58 45 37 287 101 273 143 176 206 211 226 227 224 221 227 242 236 220 219 224 218 216 228 229 211 214 210 217 230 226 207 198 197 223 206 199 207 213 196 195 200 198 207 195 203 275 237 234 248 252 209 150 152 106 223 220 132 162 187 170 198 226 198 180 150 198 157 157
96 90 88 85 85 82 73 74 71 71 68 62 64 58 64 72 85 80 115 337 317 297 273 340 230 249 209 221 227 210 230 211 213 228 214 201 217 216 212 217 228 221 213 213 218 213 210 210 185 192 205 211 201 210 216 203 194 204 198 221 195 209 256 250 227 235 242 222 251 327 113 153 162 148 139 191 162 211 193 181 42 213 160 141 160
99 92 84 82 80 72 60 50 52 55 56 57 55 44 49 48 34 31 87 171 300 331 301 156 261 248 268 278 273 277 281 271 281 294 282 283 255 216 216 204 225 225 215 211 219 225 224 192 211 200 197 205 207 211 219 211 205 206 187 202 189 185 199 233 219 216 210 230 237 250 193 154 137 137 176 105 167 226 160 201 183 290 209 167 157
85 77 70 66 64 66 64 58 53 50 42 46 49 46 34 32 25 21 29 17 360 343 339 333 316 309 303 298 293 286 282 299 308 303 288 231 269 261 245 206 210 230 214 219 220 219 202 258 220 208 202 201 203 202 210 207 192 187 186 203 176 187 198 204 239 217 186 201 210 221 220 227 179 170 226 243 124 175 203 190 188 200 209 178 170
84 81 74 71 68 67 66 60 53 43 39 31 16 22 27 28 20 17 18 17 4 356 337 337 327 315 315 316 304 306 313 320 314 307 302 311 281 273 261 281 226 228 241 228 229 224 194 201 216 203 205 205 200 202 203 197 195 187 193 185 199 199 201 206 218 220 198 200 173 212 210 211 213 216 191 161 175 223 176 178 187 178 212 186 170
81 80 80 73 71 69 65 67 58 48 35 32 23 22 23 20 13 18 18 14 360 2 352 353 345 326 313 312 319 328 333 318 313 307 302 294 290 266 267 239 227 206 242 256 240 233 223 217 211 213 213 207 194 201 200 197 190 191 201 195 195 212 205 196 201 205 212 214 194 196 196 196 222 212 212 185 182 230 201 179 179 176 190 189 180
84 85 80 81 78 75 66 64 60 51 42 32 25 20 14 15 8 11 16 11 2 358 357 354 347 347 348 350 347 338 333 321 309 310 330 325 304 281 229 237 210 216 198 213 265 259 242 230 216 214 214 209 200 197 198 194 191 190 193 211 196 203 213 190 196 199 210 220 207 198 206 197 197 195 209 203 198 204 177 186 171 183 183 164 190
90 87 83 78 78 72 69 62 55 52 45 39 26 18 18 16 10 4 21 9 0 354 354 353 352 353 355 348 346 347 336 331 324 322 316 313 303 313 326 290 237 213 198 199 218 238 243 230 223 229 224 211 215 217 201 191 187 183 181 202 213 203 204 202 197 198 201 215 221 211 221 223 235 235 63 19 201 231 211 175 178 175 185 168 165
89 87 87 86 78 74 69 68 61 51 47 37 33 24 15 16 8 13 21 17 5 358 356 354 354 353 353 348 348 342 337 336 330 321 317 314 326 327 328 319 307 271 220 229 226 229 241 241 232 229 235 226 223 222 218 203 189 179 187 191 203 200 195 203 216 205 200 209 216 217 214 213 222 107 167 206 257 268 221 156 174 179 176 163 165
87 86 85 83 80 76 65 60 54 51 45 43 44 32 21 13 11 15 19 21 5 10 359 1 357 353 352 351 346 343 340 338 334 328 321 312 316 322 331 317 306 309 307 274 237 233 232 237 239 241 248 245 227 228 223 214 205 195 189 192 200 201 188 203 203 205 211 217 206 212 214 220 221 152 161 172 240 239 207 192 161 166 109 161 155
95 91 86 83 79 75 72 62 58 47 39 31 34 36 21 14 6 16 8 20 12 16 15 6 1 356 352 350 348 347 341 334 328 333 332 330 331 332 334 329 322 311 316 321 311 285 257 254 244 238 236 237 232 229 230 234 206 194 197 196 194 188 183 204 204 204 214 215 206 201 210 217 208 183 171 219 230 224 193 204 164 148 168 191 159
95 90 83 75 70 73 70 71 56 45 41 26 37 43 29 1 354 22 17 31 18 7 8 1 358 360 356 352 352 341 334 328 325 332 338 336 329 317 302 279 271 287 301 306 305 304 300 273 263 257 257 256 253 238 228 231 236 209 194 189 192 186 186 194 198 202 214 215 205 192 201 222 203 190 211 229 229 210 221 187 173 157 159 167 143
101 90 82 75 66 58 57 55 65 57 48 37 40 37 14 354 33 33 24 22 19 8 5 352 352 5 11 355 348 338 334 330 327 332 340 325 308 290 284 298 292 270 263 257 281 286 289 287 278 271 279 306 288 262 243 238 237 232 210 195 200 190 185 202 198 194 202 201 189 192 209 212 224 206 231 244 226 175 217 175 174 183 164 163 168
97 87 77 73 67 62 58 51 52 48 43 33 33 60 22 25 37 43 40 24 25 15 357 348 2 6 3 352 345 345 332 329 328 333 333 322 326 318 308 307 309 309 305 275 259 266 267 287 295 302 312 286 264 262 245 226 231 233 219 205 200 192 189 189 205 194 182 186 197 190 215 240 230 238 252 249 231 176 196 207 194 211 176 173 172
85 78 74 69 66 67 62 57 57 53 47 42 27 28 34 330 125 87 60 40 30 16 5 4 12 2 351 342 349 346 345 335 333 336 335 332 337 335 329 322 313 315 307 300 282 263 276 282 288 300 310 276 275 267 267 256 236 227 237 228 193 187 193 198 202 189 182 188 192 192 191 235 251 244 255 260 238 182 195 214 201 218 214 156 165
88 81 76 73 72 68 61 59 58 54 53 51 55 44 30 9 353 68 52 45 22 11 15 21 33 11 356 353 349 346 351 342 341 340 336 336 342 340 339 333 333 325 315 311 312 310 304 289 253 262 253 216 238 255 264 263 247 236 222 216 208 191 198 204 200 193 187 184 188 195 192 206 204 222 248 241 223 195 207 217 208 193 181 147 149
87 84 80 76 76 73 72 70 63 58 47 47 45 42 21 354 353 59 47 30 20 350 7 44 35 26 16 3 352 348 352 348 348 346 343 347 342 340 342 337 327 312 312 307 308 299 292 303 296 267 261 234 214 238 248 242 244 233 230 224 217 205 203 204 195 189 185 158 180 199 209 215 190 211 227 223 216 208 201 220 219 181 180 165 170
89 83 81 79 73 76 82 71 62 52 47 48 44 38 30 17 14 31 38 21 17 356 9 37 29 10 22 358 17 359 358 351 346 352 353 350 344 338 334 335 332 330 310 307 312 313 309 303 305 326 279 276 271 246 244 254 247 243 235 230 227 202 223 225 198 176 191 212 197 212 220 222 208 233 247 231 204 204 198 200 202 202 195 197 183
98 97 96 94 86 81 70 71 71 62 46 41 49 42 39 26 21 28 30 28 12 4 353 30 33 23 21 7 2 5 353 349 359 354 357 356 349 344 341 339 339 333 326 311 303 307 311 344 335 278 274 272 273 257 241 209 228 235 242 233 215 230 228 213 199 189 178 182 201 212 214 205 197 224 235 238 212 205 203 205 204 190 204 203 171
112 107 94 83 87 77 78 68 62 58 51 46 46 46 41 40 31 27 39 29 17 360 348 4 26 38 24 15 3 4 339 10 15 360 356 2 356 348 346 339 339 333 327 325 319 315 316 313 309 306 259 286 265 252 248 244 233 220 226 227 251 245 234 221 202 194 179 172 184 200 207 193 183 213 234 230 222 205 199 209 206 188 197 192 121
110 102 96 91 80 77 69 65 58 55 57 46 49 45 39 38 27 30 35 31 2 353 15 16 8 13 25 18 8 7 351 19 12 4 0 358 357 351 349 350 350 347 343 334 328 318 285 184 282 295 290 245 269 265 236 241 258 257 225 227 231 223 227 218 208 198 190 177 186 203 204 195 200 200 265 252 221 206 199 203 194 180 60 45 44
109 104 95 85 82 78 74 66 60 56 53 55 50 45 42 38 37 24 31 33 12 11 9 13 15 8 8 12 14 8 11 13 8 6 4 0 358 359 356 355 354 351 347 347 345 342 337 324 259 250 286 301 265 237 270 266 262 281 278 230 196 225 229 221 224 186 198 187 194 206 200 199 192 195 221 250 239 243 25 17 23 88 122 135 135
108 99 96 94 86 77 68 62 60 51 45 49 45 39 38 34 23 21 29 44 21 10 24 19 12 15 6 6 9 13 8 15 10 10 6 3 2 360 359 359 357 356 354 353 351 351 348 348 342 296 287 313 307 301 273 254 231 221 230 224 215 201 212 206 199 200 203 200 197 209 205 199 200 199 213 246 30 114 172 185 174 140 151 139 146
108 100 92 89 84 72 60 54 49 53 45 45 52 42 38 31 26 15 21 23 16 18 15 16 19 17 12 7 12 12 12 11 10 14 8 5 5 4 2 359 360 3 0 359 356 351 351 352 349 352 344 328 321 274 261 288 277 245 237 230 224 212 214 202 205 199 201 202 200 206 216 210 194 182 205 229 191 189 170 157 174 163 166 155 156
104 98 92 83 71 65 62 54 51 50 47 46 47 43 38 34 34 29 21 19 17 14 20 14 18 18 13 6 14 17 13 11 11 13 12 9 8 6 5 2 4 5 3 2 359 357 359 358 355 356 356 350 358 16 10 346 324 298 266 250 260 251 202 206 201 202 202 210 207 195 204 211 204 183 167 193 215 189 179 176 177 173 168 163 165
92 87 81 72 68 67 61 55 51 49 46 42 43 41 36 34 30 29 19 19 7 28 29 16 18 15 13 10 11 15 13 14 12 14 14 12 11 9 8 7 7 6 4 4 3 4 5 4 359 356 353 6 25 12 356 353 354 351 319 299 271 238 218 219 208 204 204 201 207 202 221 220 197 183 180 184 185 188 194 190 176 178 171 177 181
96 95 85 75 67 62 61 58 52 48 46 40 37 40 37 38 33 29 21 358 10 37 22 25 17 14 11 10 12 12 12 16 13 14 17 16 14 12 11 10 9 7 7 5 5 5 7 5 4 359 353 358 34 5 355 352 349 351 354 304 267 273 240 232 218 205 205 201 160 145 238 202 189 198 191 179 185 186 194 194 181 183 181 181 181
94 87 82 75 65 60 60 58 53 48 46 43 38 41 39 38 37 27 12 4 43 35 30 26 18 13 13 13 15 12 13 15 13 15 17 15 13 15 13 9 8 7 8 7 8 8 5 4 2 1 359 353 20 7 356 350 347 345 344 329 297 259 248 247 226 219 210 165 149 230 225 179 220 229 240 188 187 197 196 188 167 164 162 115 99
91 86 79 73 66 62 61 59 61 55 48 45 46 47 41 36 36 27 357 17 43 35 31 27 19 15 12 16 19 15 14 16 17 15 15 14 14 14 13 10 10 8 7 10 9 8 6 4 3 2 360 355 1 4 356 350 344 342 337 334 309 303 282 276 241 221 209 167 150 185 213 210 204 209 182 185 206 225 226 152 125 99 71 98 94
87 84 78 70 67 64 57 52 68 69 67 78 114 101 76 40 44 38 8 33 40 36 32 27 21 19 20 20 22 17 17 19 17 17 16 16 15 15 13 12 8 9 10 11 12 11 8 7 6 4 358 357 357 1 354 350 344 338 335 330 303 298 295 259 255 246 219 206 176 184 180 206 204 217 188 203 196 183 163 144 139 117 105 85 75
95 90 84 84 79 69 53 42 37 37 24 2 8 4 21 79 63 77 50 37 40 38 33 28 25 25 23 22 22 20 18 18 17 16 18 19 18 17 17 12 12 10 10 11 9 7 9 5 5 7 3 358 1 358 355 351 346 339 333 322 284 283 260 282 267 243 258 216 190 208 166 171 173 175 226 290 246 193 173 151 131 131 80 50 36
110 106 125 102 67 53 55 48 34 36 36 23 8 17 23 25 7 28 46 47 41 37 33 28 26 25 26 24 22 20 17 17 16 15 16 14 16 22 21 13 15 16 13 12 16 17 8 6 5 6 4 3 0 360 356 353 350 345 336 319 294 290 300 280 318 36 15 14 2 101 175 166 146 156 181 235 254 215 198 95 106 94 79 68 41
71 57 62 64 66 61 56 55 48 41 45 40 36 32 36 23 25 40 38 45 46 37 32 27 23 24 27 25 23 20 16 14 13 16 16 16 14 12 15 13 16 18 14 14 15 18 14 9 8 7 5 359 358 359 360 359 356 351 344 322 312 296 284 19 88 87 55 25 0 335 32 92 106 170 196 183 200 175 121 128 121 105 100 89 72
106 85 67 62 67 72 64 58 59 56 50 53 45 34 33 35 32 35 44 48 45 40 34 30 22 21 25 26 26 23 19 14 11 13 10 15 18 15 9 8 18 20 14 13 14 14 17 19 14 10 7 360 358 359 1 2 2 358 352 335 322 283 229 77 92 76 75 66 27 10 6 124 142 137 285 152 157 144 157 123 131 121 109 101 99
97 96 93 83 74 72 76 74 69 68 63 61 60 47 42 43 37 32 31 48 50 45 41 33 27 24 26 28 27 30 27 24 23 18 11 6 7 12 10 12 18 20 20 14 11 10 13 15 15 13 8 7 360 359 2 2 5 6 2 339 355 1 40 36 55 60 49 44 35 22 15 21 47 141 119 110 123 129 132 143 136 119 117 121 131
95 87 87 95 94 91 86 80 74 72 71 68 63 62 57 46 43 36 28 31 41 50 46 46 37 31 35 31 26 32 34 25 31 35 25 15 6 5 4 21 21 19 18 19 13 9 12 12 12 9 11 9 6 1 1 2 7 12 10 4 11 8 9 23 34 46 45 22 28 28 14 9 18 64 76 84 104 134 142 144 134 128 132 129 153
106 102 107 93 87 81 84 86 79 68 61 59 65 71 65 61 51 42 33 24 25 33 37 38 34 32 35 34 25 21 19 18 21 30 26 12 7 12 7 10 19 18 22 20 18 16 15 14 12 10 10 12 10 5 1 3 8 15 18 16 10 10 350 14 34 43 45 32 15 19 17 7 29 50 66 80 86 82 83 103 116 129 130 123 112
103 104 94 95 96 100 88 72 68 74 77 69 60 64 64 65 59 51 41 32 26 29 31 29 31 35 43 42 32 23 19 23 27 39 33 21 13 11 9 11 17 17 13 12 13 18 20 21 16 10 11 9 5 9 6 4 8 13 20 24 20 8 5 16 32 42 35 33 12 12 18 4 52 60 63 68 78 89 93 92 101 109 109 107 110
120 115 105 104 104 87 74 75 72 65 59 60 62 67 68 71 68 67 61 48 36 29 33 34 30 31 38 46 45 37 35 30 29 43 41 27 21 19 17 13 16 20 16 14 9 8 14 14 16 14 11 7 3 359 8 7 5 12 18 22 24 25 18 26 31 42 34 25 14 17 19 9 64 66 67 66 67 70 72 88 92 90 97 105 113
112 109 117 107 89 93 98 78 68 62 64 63 56 60 59 60 62 70 75 64 53 38 33 37 37 34 34 37 33 33 28 28 41 45 46 35 24 21 22 19 18 20 20 16 11 9 10 12 10 13 13 9 4 2 359 7 6 8 15 18 21 25 31 31 34 38 27 19 25 22 7 4 55 66 65 63 66 69 71 63 67 78 81 80 85
130 114 98 100 102 90 85 84 78 74 63 61 57 61 56 63 64 61 56 55 56 49 35 40 44 41 36 38 42 46 33 15 18 33 45 38 28 22 22 19 19 23 22 18 14 9 10 12 10 8 12 10 6 357 358 0 3 6 11 14 15 18 23 25 31 30 28 22 21 20 16 23 38 57 63 59 53 54 60 61 61 62 65 73 77
101 99 102 99 90 83 78 77 83 81 71 63 68 67 67 68 79 73 63 55 53 59 51 39 41 44 41 39 43 51 46 30 28 27 37 48 36 25 25 18 18 19 19 18 13 10 9 12 14 7 5 10 5 4 351 350 357 360 7 10 12 16 19 21 26 26 23 21 19 22 24 21 30 43 57 54 56 46 55 58 56 56 58 62 73
117 113 114 103 101 96 88 80 74 68 67 60 57 51 60 76 65 66 70 70 61 67 65 48 47 38 40 47 66 63 59 49 35 36 33 36 44 42 26 26 22 17 17 17 14 11 8 9 15 7 2 359 6 5 359 346 342 350 5 7 12 13 14 21 23 17 22 29 22 23 30 25 21 42 57 60 53 36 38 47 53 55 57 53 56
107 96 90 102 98 93 103 105 89 77 68 67 57 39 36 61 68 70 86 89 88 80 68 60 46 45 35 35 52 114 97 64 64 44 35 32 30 54 51 26 21 13 9 13 17 12 10 10 15 8 358 359 358 1 359 352 343 344 350 8 13 16 18 20 19 11 25 24 32 30 33 33 25 26 35 49 49 43 32 33 46 50 54 61 61
116 122 120 95 91 93 85 78 78 78 81 71 66 54 44 37 32 43 36 55 91 82 81 71 55 39 48 46 44 31 62 115 95 79 65 40 19 13 55 64 30 21 12 359 7 16 13 19 28 15 2 356 355 352 347 330 334 352 6 9 13 16 13 17 17 23 31 30 28 31 29 32 30 27 31 36 44 43 32 27 34 37 43 45 45
111 103 102 102 101 108 97 82 75 77 69 71 79 70 57 68 78 60 30 12 11 46 64 70 64 43 30 47 39 44 45 43 83 123 111 81 62 54 35 58 75 24 18 15 2 13 353 23 33 49 36 17 352 327 316 331 349 2 7 14 19 25 30 30 27 33 39 39 34 37 31 29 27 26 28 32 36 38 34 30 28 29 35 42 43
139 134 133 137 139 106 76 63 41 47 88 96 90 64 62 64 56 73 86 47 27 15 25 35 50 61 45 31 44 44 44 50 46 47 116 143 130 64 52 49 40 357 343 336 343 326 344 25 32 40 80 108 13 355 357 355 357 1 9 14 19 26 33 38 36 39 38 41 38 41 35 35 34 37 40 37 38 36 30 31 31 32 29 33 39